| time (UTC) | temp F | wind direction | speed knots | gust knots | rain 1hr in | rain 24hr in | rain mn in | humidity % | barometer mb |
| 20260904173124 | 72 | 267 | 0.0 | 2.6 | 0.00 | 0.25 | 0.24 | 93 | 1013.6 |
| 20260904171608 | 71 | 53 | 0.0 | 2.6 | 0.00 | 0.25 | 0.24 | 93 | 1013.5 |
| 20260904170108 | 71 | 129 | 0.9 | 5.2 | 0.00 | 0.25 | 0.24 | 93 | 1013.2 |
| 20260904164615 | 71 | 64 | 0.9 | 4.3 | 0.12 | 0.47 | 0.24 | 94 | 1013.7 |
| 20260904163101 | 70 | 297 | 0.9 | 7.0 | 0.19 | 0.47 | 0.24 | 93 | 1014.4 |
| 20260904161618 | 70 | 56 | 1.7 | 4.3 | 0.19 | 0.47 | 0.24 | 93 | 1015.0 |
| 20260904160059 | 70 | 47 | 1.7 | 7.8 | 0.19 | 0.47 | 0.24 | 92 | 1015.0 |
| 20260904154558 | 71 | 113 | 2.6 | 7.0 | 0.07 | 0.91 | 0.12 | 89 | 1016.1 |
| 20260904153108 | 72 | 101 | 3.5 | 5.2 | 0.00 | 0.84 | 0.05 | 88 | 1016.8 |
| 20260904151601 | 71 | 114 | 4.3 | 7.8 | 0.00 | 0.84 | 0.05 | 88 | 1016.2 |
| 20260904150105 | 71 | 65 | 0.9 | 8.7 | 0.00 | 0.84 | 0.05 | 88 | 1016.1 |
| 20260904144621 | 71 | 107 | 3.5 | 5.2 | 0.00 | 0.86 | 0.05 | 89 | 1015.7 |
| 20260904143104 | 71 | 117 | 5.2 | 11.3 | 0.00 | 0.86 | 0.05 | 89 | 1016.0 |
| 20260904141604 | 70 | 39 | 4.3 | 13.9 | 0.00 | 0.86 | 0.05 | 90 | 1016.0 |
| 20260904140106 | 70 | 34 | 7.0 | 12.2 | 0.00 | 0.86 | 0.05 | 91 | 1016.1 |
| 20260904134608 | 70 | 65 | 4.3 | 9.6 | 0.00 | 0.86 | 0.05 | 91 | 1016.5 |
| 20260904133103 | 70 | 119 | 1.7 | 6.1 | 0.00 | 0.86 | 0.05 | 91 | 1016.6 |
| 20260904131558 | 69 | 82 | 0.9 | 10.4 | 0.00 | 0.86 | 0.05 | 91 | 1014.9 |
| 20260904130058 | 69 | 55 | 4.3 | 11.3 | 0.00 | 0.86 | 0.05 | 92 | 1015.1 |
| 20260904124602 | 69 | 62 | 7.8 | 12.2 | 0.00 | 0.86 | 0.05 | 93 | 1015.1 |
| 20260904123106 | 70 | 86 | 7.0 | 13.9 | 0.00 | 0.86 | 0.05 | 94 | 1014.5 |
| 20260904121558 | 69 | 79 | 4.3 | 8.7 | 0.01 | 0.86 | 0.05 | 94 | 1014.2 |
| 20260904120122 | 69 | 90 | 5.2 | 8.7 | 0.01 | 0.86 | 0.05 | 94 | 1014.0 |
| 20260904114559 | 70 | 358 | 5.2 | 7.8 | 0.01 | 0.86 | 0.05 | 94 | 1013.4 |
| 20260904113102 | 70 | 58 | 4.3 | 10.4 | 0.02 | 0.86 | 0.05 | 93 | 1013.3 |
| 20260904111612 | 71 | 98 | 2.6 | 8.7 | 0.02 | 0.85 | 0.04 | 93 | 1012.9 |
| 20260904110116 | 72 | 60 | 2.6 | 8.7 | 0.04 | 0.85 | 0.04 | 94 | 1012.9 |
| 20260904104600 | 72 | 103 | 5.2 | 10.4 | 0.04 | 0.85 | 0.04 | 94 | 1012.7 |
| 20260904103107 | 73 | 82 | 3.5 | 7.8 | 0.03 | 0.84 | 0.03 | 95 | 1012.6 |
| 20260904101602 | 72 | 71 | 5.2 | 7.0 | 0.02 | 0.83 | 0.02 | 95 | 1012.7 |
| 20260904094615 | 72 | 47 | 0.9 | 1.7 | 0.00 | 0.81 | 0.00 | 95 | 1012.5 |
| 20260904093104 | 72 | 0 | 0.0 | 1.7 | 0.00 | 0.81 | 0.00 | 95 | 1012.2 |
| 20260904091559 | 71 | 0 | 0.0 | 1.7 | 0.00 | 0.81 | 0.00 | 95 | 1012.3 |
| 20260904090101 | 71 | 0 | 0.0 | 0.0 | 0.00 | 0.81 | 0.00 | 95 | 1012.0 |
| 20260904084604 | 71 | 0 | 0.0 | 0.0 | 0.00 | 0.81 | 0.00 | 94 | 1012.3 |
| 20260904083102 | 72 | 0 | 0.0 | 0.9 | 0.00 | 0.81 | 0.00 | 94 | 1012.5 |
| 20260904081642 | 72 | 114 | 0.9 | 1.7 | 0.00 | 0.81 | 0.00 | 94 | 1011.8 |
| 20260904080059 | 72 | 0 | 0.0 | 2.6 | 0.00 | 0.81 | 0.00 | 94 | 1012.2 |
| 20260904074617 | 72 | 0 | 0.0 | 1.7 | 0.00 | 0.81 | 0.00 | 94 | 1012.6 |
| 20260904073107 | 72 | 92 | 0.0 | 5.2 | 0.00 | 0.81 | 0.00 | 94 | 1012.9 |
| 20260904071608 | 72 | 71 | 1.7 | 4.3 | 0.00 | 0.81 | 0.00 | 94 | 1013.0 |
| 20260904070131 | 71 | 70 | 0.9 | 3.5 | 0.00 | 0.81 | 0.00 | 94 | 1012.7 |
| 20260904064606 | 71 | 102 | 0.9 | 4.3 | 0.00 | 0.81 | 0.00 | 95 | 1012.8 |
| 20260904063101 | 71 | 49 | 1.7 | 4.3 | 0.00 | 0.81 | 0.00 | 94 | 1012.8 |
| 20260904061608 | 72 | 55 | 0.9 | 3.5 | 0.00 | 0.81 | 0.00 | 94 | 1012.9 |
| 20260904060106 | 72 | 89 | 1.7 | 3.5 | 0.00 | 0.81 | 0.00 | 94 | 1012.9 |
| 20260904054607 | 72 | 71 | 1.7 | 3.5 | 0.00 | 0.81 | 0.00 | 94 | 1013.0 |
| 20260904053107 | 72 | 82 | 0.9 | 4.3 | 0.00 | 0.81 | 0.00 | 94 | 1013.3 |
| 20260904051608 | 72 | 0 | 0.0 | 0.9 | 0.00 | 0.81 | 0.00 | 94 | 1013.3 |
| 20260904050109 | 72 | 0 | 0.0 | 2.6 | 0.00 | 0.81 | 0.00 | 93 | 1013.3 |
| 20260904044605 | 72 | 44 | 1.7 | 4.3 | 0.00 | 0.81 | 0.81 | 93 | 1013.7 |
| 20260904043122 | 72 | 103 | 0.9 | 4.3 | 0.00 | 0.81 | 0.81 | 93 | 1013.6 |
| 20260904041606 | 72 | 82 | 2.6 | 4.3 | 0.00 | 0.81 | 0.81 | 92 | 1013.6 |
| 20260904040107 | 72 | 83 | 0.0 | 2.6 | 0.00 | 0.81 | 0.81 | 92 | 1013.5 |
| 20260904034605 | 72 | 85 | 1.7 | 3.5 | 0.00 | 0.81 | 0.81 | 92 | 1013.5 |
| 20260904033101 | 72 | 83 | 2.6 | 5.2 | 0.00 | 0.81 | 0.81 | 92 | 1013.6 |
| 20260904031602 | 72 | 72 | 1.7 | 2.6 | 0.00 | 0.81 | 0.81 | 92 | 1014.0 |
| 20260904030059 | 72 | 73 | 0.0 | 1.7 | 0.00 | 0.81 | 0.81 | 91 | 1014.0 |
| 20260904024604 | 72 | 70 | 0.9 | 2.6 | 0.00 | 0.81 | 0.81 | 91 | 1013.9 |
| 20260904023102 | 73 | 47 | 1.7 | 5.2 | 0.00 | 0.81 | 0.81 | 91 | 1013.8 |
| 20260904021602 | 73 | 78 | 0.9 | 4.3 | 0.00 | 0.81 | 0.81 | 90 | 1013.7 |
| 20260904020106 | 73 | 70 | 2.6 | 4.3 | 0.00 | 0.81 | 0.81 | 90 | 1013.7 |
| 20260904014645 | 73 | 0 | 0.0 | 0.0 | 0.00 | 0.81 | 0.81 | 90 | 1013.6 |
| 20260904013103 | 73 | 0 | 0.0 | 0.9 | 0.00 | 0.81 | 0.81 | 89 | 1013.5 |
| 20260904011602 | 74 | 70 | 0.9 | 2.6 | 0.00 | 0.81 | 0.81 | 88 | 1013.2 |
| 20260904010100 | 74 | 64 | 0.0 | 2.6 | 0.00 | 0.81 | 0.81 | 87 | 1013.0 |
| 20260904004605 | 75 | 113 | 1.7 | 2.6 | 0.00 | 0.81 | 0.81 | 87 | 1012.9 |
| 20260904003110 | 75 | 72 | 0.9 | 2.6 | 0.00 | 0.81 | 0.81 | 86 | 1012.8 |
| 20260904001602 | 75 | 50 | 0.0 | 3.5 | 0.00 | 0.81 | 0.81 | 85 | 1012.8 |
| 20260904000140 | 76 | 45 | 1.7 | 5.2 | 0.00 | 0.81 | 0.81 | 84 | 1012.8 |
| 20260903234604 | 77 | 77 | 3.5 | 6.1 | 0.00 | 0.81 | 0.81 | 85 | 1012.7 |
| 20260903233101 | 77 | 88 | 3.5 | 6.1 | 0.00 | 0.81 | 0.81 | 85 | 1012.5 |
| 20260903231618 | 79 | 340 | 7.8 | 10.4 | 0.00 | 0.81 | 0.81 | 84 | 1012.3 |
| 20260903230108 | 81 | 85 | 0.9 | 3.5 | 0.00 | 0.81 | 0.81 | 81 | 1012.1 |
| 20260903224602 | 82 | 79 | 1.7 | 2.6 | 0.00 | 0.81 | 0.81 | 79 | 1012.3 |
| 20260903223108 | 82 | 0 | 0.0 | 0.0 | 0.00 | 0.81 | 0.81 | 83 | 1012.6 |
| 20260903221559 | 82 | 0 | 0.0 | 0.0 | 0.00 | 0.81 | 0.81 | 81 | 1012.4 |
| 20260903220110 | 83 | 0 | 0.0 | 0.0 | 0.00 | 0.81 | 0.81 | 78 | 1012.4 |
| 20260903214606 | 83 | 0 | 0.0 | 0.0 | 0.00 | 0.81 | 0.81 | 77 | 1012.5 |
| 20260903213104 | 83 | 0 | 0.0 | 0.9 | 0.00 | 0.81 | 0.81 | 77 | 1012.7 |
| 20260903211602 | 84 | 0 | 0.0 | 0.0 | 0.00 | 0.81 | 0.81 | 77 | 1012.5 |
| 20260903204608 | 84 | 0 | 0.0 | 1.7 | 0.00 | 0.81 | 0.81 | 75 | 1012.4 |
| 20260903203106 | 84 | 0 | 0.0 | 0.9 | 0.00 | 0.81 | 0.81 | 74 | 1012.5 |
| 20260903201601 | 82 | 0 | 0.0 | 0.9 | 0.00 | 0.81 | 0.81 | 77 | 1012.6 |
| 20260903200101 | 81 | 0 | 0.0 | 0.9 | 0.00 | 0.81 | 0.81 | 82 | 1012.6 |
| 20260903194602 | 80 | 0 | 0.0 | 1.7 | 0.00 | 0.81 | 0.81 | 81 | 1012.7 |
| 20260903193111 | 81 | 0 | 0.0 | 0.9 | 0.01 | 0.81 | 0.81 | 78 | 1012.9 |
| 20260903191607 | 80 | 0 | 0.0 | 0.9 | 0.01 | 0.81 | 0.81 | 81 | 1013.2 |
| 20260903190113 | 79 | 58 | 0.0 | 1.7 | 0.01 | 0.81 | 0.81 | 83 | 1013.2 |
| 20260903184604 | 79 | 0 | 0.0 | 0.9 | 0.01 | 0.81 | 0.81 | 84 | 1013.7 |
| 20260903183106 | 77 | 94 | 0.0 | 0.9 | 0.00 | 0.80 | 0.80 | 89 | 1013.5 |
| 20260903181609 | 76 | 0 | 0.0 | 0.9 | 0.00 | 0.80 | 0.80 | 93 | 1013.8 |
| 20260903180107 | 73 | 237 | 0.0 | 0.9 | 0.00 | 0.80 | 0.80 | 94 | 1014.0 |
| 20260903174612 | 73 | 129 | 0.0 | 0.9 | 0.01 | 0.80 | 0.80 | 94 | 1014.0 |